Location: Newark
(40.3500°N, 15.2333°E)
Time: 07:26:14
(UTC+00:00)

Vanguard 1 - Pass Details

Date: 28 January 2020
Orbit: 650 x 3833 km, 34.2° (Epoch: 20 February)

Event Time Altitude Azimuth Distance (km) Brightness Sun altitude
Rises 18:35:57 0° 266° (W) 2,994 13.9 -27.5°
Reaches altitude 10° 18:38:12 10° 255° (WSW) 2,175 12.8 -27.9°
Maximum altitude 18:42:30 32° 192° (SSW) 1,435 10.9 -28.7°
Enters shadow 18:43:11 31° 179° (S) 1,507 10.9 -28.9°
Drops below altitude 10° 18:48:36 10° 132° (SE) 3,124 - -29.9°
Sets 18:52:33 0° 123° (ESE) 4,572 - -30.6°
